Rochester/St. Mary\'s Hospita, MN

9:52 AM CDT on July 16, 2018 (GMT -0500)
Rochester/St. Mary\'s Hospita

Weather History for K9MN - October, 2017

Change the Weather History Date:

Friday, October 27, 2017

  Actual Average (KRST) Record (KRST)
Temperature  
Mean Temperature 32 °F -  
Max Temperature 33 °F 55 °F 77 °F (1940)
Min Temperature 31 °F 35 °F 13 °F (1936)
Degree Days  
Heating Degree Days 32    
Moisture  
Dew Point 31 °F    
Average Humidity 94    
Maximum Humidity 100    
Minimum Humidity 79    
Precipitation  
Precipitation 0.00 in - - ()
Sea Level Pressure  
Sea Level Pressure 29.73 in    
Wind  
Wind Speed 18 mph (WNW)    
Max Wind Speed 28 mph    
Max Gust Speed 39 mph    
Visibility 6 miles    
Events      
Averages and records for this station are not official NWS values.
T = Trace of Precipitation, MM = Missing Value Source: NWS Daily Summary

Daily Weather History Graph

Daily Weather History Graph

Search for Another Location

Airport or City:

Astronomy

Oct. 27, 2017 Rise Set
Actual Time 7:40 AM CDT 6:06 PM CDT
Civil Twilight 7:10 AM CDT 6:36 PM CDT
Nautical Twilight 6:36 AM CDT 7:10 PM CDT
Astronomical Twilight 6:03 AM CDT 7:43 PM CDT
Moon 2:19 PM CDT (10/27) No Moon Set
Length of Visible Light 11h 25m
Length of Day
10h 26m
Waxing Crescent, 48% of the Moon is Illuminated
Oct 27
Waxing Crescent
Oct 27
First Quarter
Nov 4
Full
Nov 10
Last Quarter
Nov 18
New

Hourly Weather History & Observations

Time (CDT) Temp. Windchill Dew Point Humidity Pressure Visibility Wind Dir Wind Speed Gust Speed Precip Events Conditions
12:32 AM 33.8 °F 22.2 °F 28.0 °F 79% 29.71 in 10.0 mi West 20.7 mph 29.9 mph N/A   Overcast
12:52 AM 33.4 °F 21.7 °F 28.2 °F 81% 29.70 in 10.0 mi West 20.7 mph 27.6 mph N/A   Overcast
1:11 AM 33.4 °F 22.3 °F 28.4 °F 82% 29.70 in 10.0 mi West 18.4 mph 29.9 mph N/A   Overcast
1:32 AM 33.4 °F 22.0 °F 28.4 °F 82% 29.69 in 10.0 mi West 19.6 mph 25.3 mph N/A   Overcast
1:52 AM 33.8 °F 24.3 °F 28.8 °F 82% 29.70 in 10.0 mi West 13.8 mph 23.0 mph N/A   Overcast
2:11 AM 33.8 °F 24.3 °F 28.6 °F 81% 29.69 in 10.0 mi West 13.8 mph 25.3 mph N/A   Overcast
2:32 AM 33.6 °F 24.1 °F 28.9 °F 83% 29.69 in 10.0 mi West 13.8 mph 24.2 mph N/A   Overcast
2:51 AM 33.8 °F 23.5 °F 28.4 °F 81% 29.68 in 10.0 mi West 16.1 mph 26.5 mph N/A   Overcast
3:12 AM 33.8 °F 23.9 °F 28.2 °F 80% 29.67 in 10.0 mi West 15.0 mph 24.2 mph N/A   Overcast
3:31 AM 33.8 °F 24.8 °F 28.4 °F 81% 29.66 in 10.0 mi West 12.7 mph 24.2 mph N/A   Overcast
3:52 AM 33.8 °F 23.2 °F 28.4 °F 81% 29.66 in 10.0 mi WSW 17.3 mph 26.5 mph N/A   Overcast
4:12 AM 33.1 °F 22.2 °F 28.4 °F 83% 29.65 in 10.0 mi WSW 17.3 mph 28.8 mph N/A   Overcast
4:31 AM 32.9 °F 22.0 °F 29.5 °F 87% 29.65 in 10.0 mi West 17.3 mph 26.5 mph N/A   Overcast
4:52 AM 32.9 °F 23.7 °F 29.3 °F 87% 29.65 in 10.0 mi West 12.7 mph 23.0 mph N/A   Overcast
5:12 AM 32.7 °F 20.4 °F 29.5 °F 88% 29.64 in 10.0 mi WSW 21.9 mph 27.6 mph N/A   Overcast
5:31 AM 32.5 °F 21.9 °F 29.5 °F 88% 29.64 in 10.0 mi West 16.1 mph 26.5 mph N/A   Overcast
5:52 AM 32.5 °F 21.9 °F 30.0 °F 90% 29.64 in 7.0 mi West 16.1 mph 27.6 mph N/A   Overcast
6:12 AM 32.5 °F 22.3 °F 30.6 °F 92% 29.63 in 10.0 mi West 15.0 mph 24.2 mph N/A   Overcast
6:31 AM 32.9 °F 22.4 °F 30.7 °F 92% 29.63 in 10.0 mi WSW 16.1 mph 24.2 mph N/A   Overcast
6:52 AM 33.4 °F 23.5 °F 31.1 °F 91% 29.63 in 10.0 mi West 15.0 mph 23.0 mph N/A   Overcast
7:12 AM 33.6 °F 23.3 °F 31.5 °F 92% 29.62 in 7.0 mi WSW 16.1 mph 25.3 mph N/A   Overcast
7:31 AM 33.3 °F 23.2 °F 31.8 °F 94% 29.62 in 5.0 mi West 15.0 mph 26.5 mph N/A   Overcast
7:52 AM 33.4 °F 23.5 °F 32.0 °F 94% 29.62 in 3.0 mi West 15.0 mph 24.2 mph N/A   Overcast
8:12 AM 32.9 °F 22.0 °F 32.0 °F 96% 29.63 in 0.8 mi West 17.3 mph 25.3 mph N/A   Overcast
8:31 AM 32.9 °F 23.2 °F 32.4 °F 98% 29.63 in 3.0 mi West 13.8 mph 21.9 mph N/A   Overcast
8:52 AM 32.9 °F 21.0 °F 32.5 °F 99% 29.63 in 5.0 mi West 20.7 mph 26.5 mph N/A   Overcast
9:12 AM 32.5 °F 21.9 °F 32.2 °F 99% 29.64 in 2.5 mi West 16.1 mph 26.5 mph N/A   Overcast
9:31 AM 32.9 °F 22.4 °F 32.5 °F 99% 29.65 in 4.0 mi WNW 16.1 mph 26.5 mph N/A   Overcast
9:52 AM 32.5 °F 19.9 °F 32.2 °F 99% 29.65 in 5.0 mi WNW 23.0 mph 28.8 mph N/A   Overcast
10:12 AM 32.5 °F 21.9 °F 32.4 °F 99% 29.66 in 5.0 mi WNW 16.1 mph 23.0 mph N/A   Overcast
10:31 AM 32.4 °F 20.6 °F 32.2 °F 99% 29.66 in 3.0 mi WNW 19.6 mph 29.9 mph N/A   Overcast
10:52 AM 32.2 °F 19.7 °F 32.0 °F 99% 29.67 in 2.5 mi WNW 21.9 mph 33.4 mph N/A   Overcast
11:12 AM 32.0 °F 18.6 °F 32.0 °F 100% 29.67 in 5.0 mi WNW 25.3 mph 33.4 mph N/A   Overcast
11:31 AM 32.0 °F 19.2 °F 31.8 °F 99% 29.68 in 10.0 mi WNW 23.0 mph 32.2 mph N/A   Overcast
11:52 AM 32.0 °F 19.5 °F 31.1 °F 96% 29.69 in 10.0 mi WNW 21.9 mph 29.9 mph N/A   Overcast
12:12 PM 32.4 °F 19.4 °F 31.5 °F 96% 29.69 in 10.0 mi WNW 24.2 mph 32.2 mph N/A   Overcast
12:31 PM 32.5 °F 19.6 °F 31.1 °F 94% 29.69 in 7.0 mi NW 24.2 mph 35.7 mph N/A   Overcast
12:52 PM 33.1 °F 20.3 °F 32.0 °F 96% 29.69 in 4.0 mi WNW 24.2 mph 32.2 mph N/A   Overcast
1:12 PM 32.9 °F 19.3 °F 31.1 °F 93% 29.69 in 10.0 mi WNW 27.6 mph 33.4 mph N/A   Overcast
1:31 PM 33.1 °F 19.6 °F 31.1 °F 92% 29.69 in 5.0 mi WNW 27.6 mph 35.7 mph N/A   Overcast
1:52 PM 32.9 °F 20.1 °F 31.1 °F 93% 29.70 in 4.0 mi WNW 24.2 mph 34.5 mph N/A   Overcast
2:12 PM 32.9 °F 20.7 °F 31.5 °F 94% 29.71 in 3.0 mi WNW 21.9 mph 36.8 mph N/A   Overcast
2:31 PM 32.9 °F 19.8 °F 32.0 °F 96% 29.70 in 5.0 mi WNW 25.3 mph 34.5 mph N/A   Overcast
2:52 PM 32.9 °F 19.8 °F 31.8 °F 96% 29.70 in 4.0 mi WNW 25.3 mph 36.8 mph N/A   Overcast
3:12 PM 32.5 °F 20.2 °F 31.8 °F 97% 29.72 in 2.0 mi WNW 21.9 mph 36.8 mph N/A   Overcast
3:32 PM 32.2 °F 18.9 °F 32.0 °F 99% 29.72 in 1.0 mi WNW 25.3 mph 35.7 mph N/A   Overcast
3:52 PM 32.2 °F 19.7 °F 32.0 °F 99% 29.73 in 4.0 mi WNW 21.9 mph 36.8 mph N/A   Overcast
4:11 PM 32.2 °F 19.1 °F 32.0 °F 99% 29.73 in 1.8 mi WNW 24.2 mph 35.7 mph N/A   Overcast
4:32 PM 32.0 °F 18.6 °F 32.0 °F 100% 29.75 in 2.5 mi WNW 25.3 mph 34.5 mph N/A   Overcast
4:51 PM 32.2 °F 21.4 °F 32.2 °F 100% 29.76 in 1.2 mi WNW 16.1 mph 39.1 mph N/A   Overcast
5:12 PM 32.2 °F 20.4 °F 32.2 °F 100% 29.77 in 2.0 mi WNW 19.6 mph 34.5 mph N/A   Overcast
5:32 PM 32.0 °F 21.6 °F 32.2 °F 100% 29.78 in 3.0 mi WNW 15.0 mph 26.5 mph N/A   Overcast
5:51 PM 32.2 °F 20.4 °F 32.2 °F 100% 29.79 in 5.0 mi WNW 19.6 mph 29.9 mph N/A   Overcast
6:12 PM 32.0 °F 20.8 °F 32.0 °F 100% 29.80 in 2.5 mi NW 17.3 mph 26.5 mph N/A   Overcast
6:32 PM 32.0 °F 20.5 °F 32.0 °F 100% 29.81 in 4.0 mi NW 18.4 mph 33.4 mph N/A   Overcast
6:51 PM 32.0 °F 19.8 °F 32.0 °F 100% 29.83 in 2.0 mi NW 20.7 mph 29.9 mph N/A   Overcast
7:12 PM 32.0 °F 21.2 °F 32.0 °F 100% 29.84 in 4.0 mi NW 16.1 mph 27.6 mph N/A   Overcast
7:32 PM 32.0 °F 22.1 °F 32.2 °F 100% 29.85 in 4.0 mi NW 13.8 mph 26.5 mph N/A   Overcast
7:51 PM 32.0 °F 21.6 °F 32.0 °F 100% 29.86 in 4.0 mi NW 15.0 mph 28.8 mph N/A   Overcast
8:12 PM 32.0 °F 20.8 °F 32.0 °F 100% 29.86 in 4.0 mi NW 17.3 mph 27.6 mph N/A   Overcast
8:32 PM 32.0 °F 20.8 °F 32.0 °F 100% 29.87 in 5.0 mi NW 17.3 mph 25.3 mph N/A   Overcast
8:51 PM 32.0 °F 21.2 °F 32.0 °F 100% 29.88 in 5.0 mi NW 16.1 mph 26.5 mph N/A   Overcast
9:12 PM 32.0 °F 22.1 °F 32.0 °F 100% 29.88 in 7.0 mi WNW 13.8 mph 31.1 mph N/A   Overcast
9:32 PM 32.0 °F 21.2 °F 32.0 °F 100% 29.89 in 5.0 mi NW 16.1 mph 26.5 mph N/A   Overcast
9:51 PM 32.0 °F 21.2 °F 32.0 °F 100% 29.89 in 10.0 mi WNW 16.1 mph 26.5 mph N/A   Overcast
10:12 PM 32.0 °F 20.8 °F 32.0 °F 100% 29.89 in 10.0 mi NW 17.3 mph 27.6 mph N/A   Overcast
10:32 PM 32.0 °F 21.2 °F 31.8 °F 99% 29.88 in 10.0 mi NW 16.1 mph 24.2 mph N/A   Overcast
10:51 PM 32.0 °F 22.1 °F 31.6 °F 99% 29.89 in 10.0 mi NW 13.8 mph 24.2 mph N/A   Overcast
11:12 PM 32.0 °F 22.5 °F 31.1 °F 96% 29.89 in 10.0 mi NW 12.7 mph 26.5 mph N/A   Overcast
11:32 PM 32.0 °F 22.5 °F 31.1 °F 96% 29.89 in 5.0 mi NW 12.7 mph 25.3 mph N/A   Overcast
11:51 PM 31.8 °F 21.8 °F 31.3 °F 98% 29.89 in 4.0 mi NW 13.8 mph 23.0 mph N/A   Overcast